,,Stat5,,Stat1,,Stat2,,Stat3,,Stat4,,Wind1,,Wind1,
time,status,PA1M_AVG,status,PR1M_SUM,status,RH1M_AVG,status,SR1M_AVG,status,TA1M_AVG,status,W1dAve1m,status,W1sAve1m,
2003-08-13, 00:00:00,VALID,918.748,VALID,0,VALID,100,VALID,0.0849042,VALID,20.2902,VALID,39,VALID,0.80511,
2003-08-13, 00:01:00,VALID,918.76,VALID,0,VALID,100,VALID,0.0679233,VALID,20.2765,VALID,27,VALID,1.15664,
2003-08-13, 00:02:00,VALID,918.764,VALID,0,VALID,100,VALID,0.0339617,VALID,20.3128,VALID,20,VALID,0.948438,
2003-08-13, 00:03:00,VALID,918.765,VALID,0,VALID,100,VALID,0.0509425,VALID,20.3379,VALID,16,VALID,1.02018,
2003-08-13, 00:04:00,VALID,918.78,VALID,0,VALID,100,VALID,0.0169808,VALID,20.3486,VALID,13,VALID,0.369792,
2003-08-13, 00:05:00,VALID,918.758,VALID,0,VALID,100,VALID,0.0679233,VALID,20.3411,VALID,213,VALID,0.432445,
2003-08-13, 00:06:00,VALID,918.74,VALID,0,VALID,100,VALID,0,VALID,20.325,VALID,111,VALID,0.377821,
2003-08-13, 00:07:00,VALID,918.728,VALID,0,VALID,100,VALID,0.0339617,VALID,20.332,VALID,28,VALID,0.738982,
2003-08-13, 00:08:00,VALID,918.718,VALID,0,VALID,100,VALID,0.0849042,VALID,20.3479,VALID,28,VALID,0.492622,
2003-08-13, 00:09:00,VALID,918.711,VALID,0,VALID,100,VALID,0.0169808,VALID,20.3548,VALID,353,VALID,0.26398,
2003-08-13, 00:10:00,VALID,918.698,VALID,0,VALID,100,VALID,0,VALID,20.3265,VALID,228,VALID,0.316518,
2003-08-13, 00:11:00,VALID,918.678,VALID,0,VALID,100,VALID,-0.0339617,VALID,20.2845,VALID,31,VALID,1.11438,
2003-08-13, 00:12:00,VALID,918.669,VALID,0,VALID,100,VALID,-0.0339617,VALID,20.3077,VALID,34,VALID,0.569853,
2003-08-13, 00:13:00,VALID,918.655,VALID,0,VALID,100,VALID,-0.0169808,VALID,20.2982,VALID,330,VALID,0.557075,
2003-08-13, 00:14:00,VALID,918.668,VALID,0,VALID,100,VALID,-0.0509425,VALID,20.2813,VALID,347,VALID,0.300576,
2003-08-13, 00:15:00,VALID,918.643,VALID,0,VALID,100,VALID,-0.0509425,VALID,20.2788,VALID,65,VALID,0.308008,
2003-08-13, 00:16:00,VALID,918.629,VALID,0,VALID,100,VALID,0,VALID,20.2716,VALID,86,VALID,0.146289,
2003-08-13, 00:17:00,VALID,918.623,VALID,0,VALID,100,VALID,-0.0169808,VALID,20.2522,VALID,71,VALID,0.393663,
2003-08-13, 00:18:00,VALID,918.591,VALID,0,VALID,100,VALID,-0.0169808,VALID,20.2622,VALID,4,VALID,0.396484,
2003-08-13, 00:19:00,VALID,918.561,VALID,0,VALID,100,VALID,-0.0339617,VALID,20.259,VALID,50,VALID,0.609375,
2003-08-13, 00:20:00,VALID,918.536,VALID,0,VALID,100,VALID,-0.0509425,VALID,20.259,VALID,13,VALID,0.823269,
2003-08-13, 00:21:00,VALID,918.521,VALID,0,VALID,100,VALID,-0.0339617,VALID,20.2982,VALID,56,VALID,0.222656,
2003-08-13, 00:22:00,VALID,918.503,VALID,0,VALID,100,VALID,-0.0169808,VALID,20.2947,VALID,36,VALID,0.888158,
2003-08-13, 00:23:00,VALID,918.466,VALID,0,VALID,100,VALID,-0.0339617,VALID,20.2915,VALID,14,VALID,1.10566,
2003-08-13, 00:24:00,VALID,918.463,VALID,0,VALID,100,VALID,0,VALID,20.2913,VALID,46,VALID,0.400223,
2003-08-13, 00:25:00,VALID,918.456,VALID,0,VALID,100,VALID,0,VALID,20.3034,VALID,53,VALID,0.468117,
2003-08-13, 00:26:00,VALID,918.456,VALID,0,VALID,100,VALID,0,VALID,20.287,VALID,1,VALID,0.645536,
2003-08-13, 00:27:00,VALID,918.456,VALID,0,VALID,100,VALID,0,VALID,20.2647,VALID,28,VALID,0.871833,
2003-08-13, 00:28:00,VALID,918.448,VALID,0,VALID,100,VALID,0.0339617,VALID,20.245,VALID,31,VALID,0.412623,
2003-08-13, 00:29:00,VALID,918.453,VALID,0,VALID,100,VALID,0.0169808,VALID,20.2388,VALID,38,VALID,0.339227,
2003-08-13, 00:30:00,VALID,918.44,VALID,0,VALID,100,VALID,-0.0509425,VALID,20.2274,VALID,26,VALID,1.43693,
2003-08-13, 00:31:00,VALID,918.424,VALID,0,VALID,100,VALID,-0.0339617,VALID,20.2008,VALID,9,VALID,1.554,
2003-08-13, 00:32:00,VALID,918.416,VALID,0,VALID,100,VALID,-0.0339617,VALID,20.1812,VALID,18,VALID,1.25422,
2003-08-13, 00:33:00,VALID,918.411,VALID,0,VALID,100,VALID,-0.101885,VALID,20.1752,VALID,346,VALID,0.731618,
2003-08-13, 00:34:00,VALID,918.383,VALID,0,VALID,100,VALID,-0.0849042,VALID,20.1529,VALID,17,VALID,1.42556,
2003-08-13, 00:35:00,VALID,918.367,VALID,0,VALID,100,VALID,-0.0849042,VALID,20.1467,VALID,13,VALID,1.89002,
2003-08-13, 00:36:00,VALID,918.355,VALID,0,VALID,100,VALID,-0.0509425,VALID,20.1171,VALID,15,VALID,1.91884,
2003-08-13, 00:37:00,VALID,918.342,VALID,0,VALID,100,VALID,-0.0849042,VALID,20.1241,VALID,360,VALID,1.52899,
2003-08-13, 00:38:00,VALID,918.329,VALID,0,VALID,100,VALID,-0.0679233,VALID,20.1273,VALID,9,VALID,1.2904,
2003-08-13, 00:39:00,VALID,918.324,VALID,0,VALID,100,VALID,-0.0849042,VALID,20.1074,VALID,343,VALID,0.857372,
2003-08-13, 00:40:00,VALID,918.301,VALID,0,VALID,100,VALID,-0.0169808,VALID,20.1034,VALID,6,VALID,1.59858,
2003-08-13, 00:41:00,VALID,918.266,VALID,0,VALID,100,VALID,0.0169808,VALID,20.093,VALID,23,VALID,1.72591,
2003-08-13, 00:42:00,VALID,918.247,VALID,0,VALID,100,VALID,0.0509425,VALID,20.1002,VALID,337,VALID,0.608347,
2003-08-13, 00:43:00,VALID,917.815,VALID,0,VALID,100,VALID,0.0169808,VALID,20.0609,VALID,327,VALID,0.778516,
2003-08-13, 00:44:00,VALID,918.226,VALID,0,VALID,100,VALID,0,VALID,20.0674,VALID,17,VALID,0.785352,
2003-08-13, 00:45:00,VALID,918.241,VALID,0,VALID,100,VALID,0,VALID,20.0997,VALID,350,VALID,0.409071,
2003-08-13, 00:46:00,VALID,918.266,VALID,0,VALID,100,VALID,0.0339617,VALID,20.1094,VALID,1,VALID,0.647352,
2003-08-13, 00:47:00,VALID,918.293,VALID,0,VALID,100,VALID,0.0339617,VALID,20.0965,VALID,22,VALID,0.9875,
2003-08-13, 00:48:00,VALID,918.305,VALID,0,VALID,100,VALID,-0.0169808,VALID,20.1064,VALID,35,VALID,1.05173,
2003-08-13, 00:49:00,VALID,918.317,VALID,0,VALID,100,VALID,0.0169808,VALID,20.1059,VALID,21,VALID,0.653166,
2003-08-13, 00:50:00,VALID,918.348,VALID,0,VALID,100,VALID,0,VALID,20.1129,VALID,27,VALID,0.439762,
2003-08-13, 00:51:00,VALID,918.345,VALID,0,VALID,100,VALID,0.0339617,VALID,20.1223,VALID,22,VALID,0.858203,
2003-08-13, 00:52:00,VALID,918.374,VALID,0,VALID,100,VALID,0.0339617,VALID,20.1389,VALID,33,VALID,0.666964,
2003-08-13, 00:53:00,VALID,918.37,VALID,0,VALID,100,VALID,0.0339617,VALID,20.1392,VALID,34,VALID,0.506334,
2003-08-13, 00:54:00,VALID,918.374,VALID,0,VALID,100,VALID,0.0339617,VALID,20.1384,VALID,3,VALID,0.60558,
2003-08-13, 00:55:00,VALID,918.373,VALID,0,VALID,100,VALID,0,VALID,20.0902,VALID,338,VALID,0.476774,
2003-08-13, 00:56:00,VALID,918.358,VALID,0,VALID,100,VALID,0,VALID,20.1061,VALID,7,VALID,0.58861,
2003-08-13, 00:57:00,VALID,918.337,VALID,0,VALID,100,VALID,0.0169808,VALID,20.1325,VALID,360,VALID,0.535156,
2003-08-13, 00:58:00,VALID,918.319,VALID,0,VALID,100,VALID,0.0169808,VALID,20.122,VALID,353,VALID,0.538872,
2003-08-13, 00:59:00,VALID,918.299,VALID,0,VALID,100,VALID,0.0339617,VALID,20.1161,VALID,9,VALID,0.851103,
2003-08-13, 01:00:00,VALID,918.296,VALID,0,VALID,100,VALID,0,VALID,20.1225,VALID,13,VALID,1.05764,
2003-08-13, 01:01:00,VALID,918.284,VALID,0.2,VALID,100,VALID,0,VALID,20.1417,VALID,338,VALID,0.460248,
2003-08-13, 01:02:00,VALID,918.293,VALID,0,VALID,100,VALID,0,VALID,20.1282,VALID,294,VALID,0.220703,
2003-08-13, 01:03:00,VALID,918.288,VALID,0,VALID,100,VALID,0,VALID,20.1293,VALID,325,VALID,0.454127,
2003-08-13, 01:04:00,VALID,918.289,VALID,0,VALID,100,VALID,0.0169808,VALID,20.1064,VALID,349,VALID,0.47678,
2003-08-13, 01:05:00,VALID,918.28,VALID,0,VALID,100,VALID,0.0509425,VALID,20.0997,VALID,5,VALID,1.03022,
2003-08-13, 01:06:00,VALID,918.27,VALID,0,VALID,100,VALID,0.0509425,VALID,20.1002,VALID,11,VALID,1.21629,
2003-08-13, 01:07:00,VALID,918.243,VALID,0,VALID,100,VALID,0.0339617,VALID,20.1126,VALID,19,VALID,0.905248,
2003-08-13, 01:08:00,VALID,918.217,VALID,0,VALID,100,VALID,0.0169808,VALID,20.0865,VALID,337,VALID,1.06043,
2003-08-13, 01:09:00,VALID,918.186,VALID,0,VALID,100,VALID,0.0339617,VALID,20.0671,VALID,15,VALID,0.867188,
2003-08-13, 01:10:00,VALID,918.162,VALID,0,VALID,100,VALID,0.0509425,VALID,20.0868,VALID,351,VALID,0.219161,
2003-08-13, 01:11:00,VALID,918.153,VALID,0,VALID,100,VALID,0.0339617,VALID,20.0925,VALID,18,VALID,0.592188,
2003-08-13, 01:12:00,VALID,918.129,VALID,0.2,VALID,100,VALID,0.0169808,VALID,20.1131,VALID,18,VALID,0.799805,
2003-08-13, 01:13:00,VALID,918.119,VALID,0,VALID,100,VALID,0.0509425,VALID,20.087,VALID,15,VALID,0.619358,
2003-08-13, 01:14:00,VALID,918.126,VALID,0,VALID,100,VALID,0.0169808,VALID,20.0545,VALID,15,VALID,0.826389,
2003-08-13, 01:15:00,VALID,918.141,VALID,0,VALID,100,VALID,0.0169808,VALID,20.058,VALID,10,VALID,0.970759,
2003-08-13, 01:16:00,VALID,918.145,VALID,0,VALID,100,VALID,0,VALID,20.048,VALID,30,VALID,0.956292,
2003-08-13, 01:17:00,VALID,918.155,VALID,0,VALID,100,VALID,0,VALID,20.0386,VALID,28,VALID,0.988692,
2003-08-13, 01:18:00,VALID,918.146,VALID,0,VALID,100,VALID,0,VALID,20.0224,VALID,30,VALID,1.15728,
2003-08-13, 01:19:00,VALID,918.163,VALID,0,VALID,100,VALID,0,VALID,20.0162,VALID,22,VALID,1.29102,
2003-08-13, 01:20:00,VALID,918.152,VALID,0,VALID,100,VALID,0.0169808,VALID,20.0229,VALID,25,VALID,1.05379,
2003-08-13, 01:21:00,VALID,918.14,VALID,0,VALID,100,VALID,0,VALID,20.0267,VALID,29,VALID,1.29434,
2003-08-13, 01:22:00,VALID,918.124,VALID,0,VALID,100,VALID,0,VALID,20.0065,VALID,30,VALID,1.1442,
2003-08-13, 01:23:00,VALID,918.12,VALID,0,VALID,100,VALID,0.0169808,VALID,19.9929,VALID,33,VALID,1.47297,
2003-08-13, 01:24:00,VALID,918.103,VALID,0,VALID,100,VALID,0.0509425,VALID,20.0003,VALID,19,VALID,1.38343,
2003-08-13, 01:25:00,VALID,918.107,VALID,0,VALID,100,VALID,-0.0509425,VALID,19.9911,VALID,13,VALID,0.906456,
2003-08-13, 01:26:00,VALID,918.121,VALID,0,VALID,100,VALID,-0.0849042,VALID,20.0075,VALID,357,VALID,0.989139,
2003-08-13, 01:27:00,VALID,918.101,VALID,0,VALID,100,VALID,-0.0849042,VALID,19.979,VALID,337,VALID,0.914982,
2003-08-13, 01:28:00,VALID,918.075,VALID,0,VALID,100,VALID,-0.101885,VALID,19.9626,VALID,357,VALID,0.609797,
2003-08-13, 01:29:00,VALID,918.045,VALID,0,VALID,100,VALID,-0.0849042,VALID,19.9884,VALID,14,VALID,0.90602,
2003-08-13, 01:30:00,VALID,918.011,VALID,0,VALID,100,VALID,-0.0849042,VALID,19.9882,VALID,6,VALID,1.1148,
2003-08-13, 01:31:00,VALID,917.977,VALID,0,VALID,100,VALID,-0.0339617,VALID,19.9879,VALID,8,VALID,1.3127,
2003-08-13, 01:32:00,VALID,917.933,VALID,0,VALID,100,VALID,-0.101885,VALID,19.965,VALID,23,VALID,1.43793,
2003-08-13, 01:33:00,VALID,917.898,VALID,0,VALID,100,VALID,-0.0679233,VALID,19.9663,VALID,19,VALID,1.15193,
2003-08-13, 01:34:00,VALID,917.903,VALID,0,VALID,100,VALID,-0.0679233,VALID,19.9531,VALID,11,VALID,1.37902,
2003-08-13, 01:35:00,VALID,917.894,VALID,0,VALID,100,VALID,-0.101885,VALID,19.9367,VALID,11,VALID,1.75401,
2003-08-13, 01:36:00,VALID,917.885,VALID,0,VALID,100,VALID,-0.0849042,VALID,19.8853,VALID,9,VALID,1.8341,
2003-08-13, 01:37:00,VALID,917.893,VALID,0,VALID,100,VALID,-0.0509425,VALID,19.8915,VALID,1,VALID,1.16949,
2003-08-13, 01:38:00,VALID,917.882,VALID,0,VALID,100,VALID,-0.0849042,VALID,19.889,VALID,342,VALID,0.836554,
2003-08-13, 01:39:00,VALID,917.889,VALID,0,VALID,100,VALID,-0.0679233,VALID,19.8428,VALID,338,VALID,0.655273,
2003-08-13, 01:40:00,VALID,917.846,VALID,0,VALID,100,VALID,-0.0849042,VALID,19.8466,VALID,337,VALID,0.731445,
2003-08-13, 01:41:00,VALID,917.821,VALID,0,VALID,100,VALID,-0.101885,VALID,19.8466,VALID,360,VALID,0.361979,
2003-08-13, 01:42:00,VALID,917.805,VALID,0,VALID,100,VALID,-0.0849042,VALID,19.8463,VALID,9,VALID,1.01324,
2003-08-13, 01:43:00,VALID,917.767,VALID,0,VALID,100,VALID,-0.0849042,VALID,19.8592,VALID,6,VALID,0.516964,
2003-08-13, 01:44:00,VALID,917.764,VALID,0,VALID,100,VALID,-0.0849042,VALID,19.8848,VALID,6,VALID,0.0390625,
2003-08-13, 01:45:00,VALID,917.751,VALID,0,VALID,100,VALID,-0.101885,VALID,19.892,VALID,5,VALID,0.922697,
2003-08-13, 01:46:00,VALID,917.73,VALID,0,VALID,100,VALID,-0.101885,VALID,19.8528,VALID,358,VALID,1.12788,
2003-08-13, 01:47:00,VALID,917.728,VALID,0,VALID,100,VALID,-0.101885,VALID,19.8565,VALID,333,VALID,0.694141,
2003-08-13, 01:48:00,VALID,917.726,VALID,0,VALID,100,VALID,-0.101885,VALID,19.8562,VALID,15,VALID,1.39107,
2003-08-13, 01:49:00,VALID,917.707,VALID,0,VALID,100,VALID,-0.101885,VALID,19.8592,VALID,10,VALID,0.992399,
2003-08-13, 01:50:00,VALID,917.702,VALID,0,VALID,100,VALID,-0.101885,VALID,19.8823,VALID,24,VALID,0.797991,
2003-08-13, 01:51:00,VALID,917.681,VALID,0,VALID,100,VALID,-0.101885,VALID,19.9057,VALID,358,VALID,0.581503,
2003-08-13, 01:52:00,VALID,917.648,VALID,0,VALID,100,VALID,-0.101885,VALID,19.8796,VALID,334,VALID,0.360403,
2003-08-13, 01:53:00,VALID,917.635,VALID,0,VALID,100,VALID,-0.101885,VALID,19.8689,VALID,329,VALID,0.218544,
2003-08-13, 01:54:00,VALID,917.616,VALID,0,VALID,100,VALID,-0.101885,VALID,19.892,VALID,4,VALID,0.952553,
2003-08-13, 01:55:00,VALID,917.58,VALID,0,VALID,100,VALID,-0.0169808,VALID,19.8873,VALID,19,VALID,1.29527,
2003-08-13, 01:56:00,VALID,917.575,VALID,0,VALID,100,VALID,0,VALID,19.9263,VALID,30,VALID,1.02344,
2003-08-13, 01:57:00,VALID,917.564,VALID,0,VALID,100,VALID,0.0509425,VALID,19.9417,VALID,15,VALID,1.08571,
2003-08-13, 01:58:00,VALID,917.553,VALID,0,VALID,100,VALID,-0.0169808,VALID,19.9357,VALID,16,VALID,1.20768,
2003-08-13, 01:59:00,VALID,917.558,VALID,0,VALID,100,VALID,0,VALID,19.9355,VALID,14,VALID,0.682292,
2003-08-13, 02:00:00,VALID,917.565,VALID,0,VALID,100,VALID,0,VALID,19.9352,VALID,15,VALID,1.13932,
2003-08-13, 02:01:00,VALID,917.568,VALID,0,VALID,100,VALID,0.0169808,VALID,19.9549,VALID,25,VALID,0.796669,
2003-08-13, 02:02:00,VALID,917.554,VALID,0,VALID,100,VALID,0.0169808,VALID,19.9645,VALID,5,VALID,0.622321,
2003-08-13, 02:03:00,VALID,917.554,VALID,0,VALID,100,VALID,0.0169808,VALID,19.9742,VALID,16,VALID,0.533654,
2003-08-13, 02:04:00,VALID,917.534,VALID,0,VALID,100,VALID,0.0169808,VALID,20.0036,VALID,18,VALID,0.317096,
2003-08-13, 02:05:00,VALID,917.521,VALID,0,VALID,100,VALID,0,VALID,19.9966,VALID,19,VALID,0.949653,
2003-08-13, 02:06:00,VALID,917.485,VALID,0,VALID,100,VALID,0,VALID,19.9742,VALID,12,VALID,1.35526,
2003-08-13, 02:07:00,VALID,917.471,VALID,0,VALID,100,VALID,0,VALID,19.9293,VALID,15,VALID,1.13711,
2003-08-13, 02:08:00,VALID,917.469,VALID,0,VALID,100,VALID,0,VALID,19.9159,VALID,12,VALID,0.279102,
2003-08-13, 02:09:00,VALID,917.456,VALID,0,VALID,100,VALID,-0.0169808,VALID,19.936,VALID,12,VALID,0.458767,
2003-08-13, 02:10:00,VALID,917.46,VALID,0,VALID,100,VALID,0.0169808,VALID,19.9422,VALID,17,VALID,0.487847,
2003-08-13, 02:11:00,VALID,917.451,VALID,0,VALID,100,VALID,-0.0169808,VALID,19.9611,VALID,16,VALID,0.0417411,
2003-08-13, 02:12:00,VALID,917.439,VALID,0,VALID,100,VALID,0,VALID,19.9645,VALID,22,VALID,0.562711,
2003-08-13, 02:13:00,VALID,917.431,VALID,0,VALID,100,VALID,0,VALID,19.9772,VALID,22,VALID,0.93051,
2003-08-13, 02:14:00,VALID,917.419,VALID,0,VALID,100,VALID,-0.0339617,VALID,19.9973,VALID,24,VALID,0.550576,
2003-08-13, 02:15:00,VALID,917.442,VALID,0,VALID,100,VALID,-0.0169808,VALID,19.9968,VALID,26,VALID,0.61582,
2003-08-13, 02:16:00,VALID,917.446,VALID,0,VALID,100,VALID,-0.0169808,VALID,19.9807,VALID,11,VALID,0.758259,
2003-08-13, 02:17:00,VALID,917.446,VALID,0,VALID,100,VALID,-0.0169808,VALID,19.9775,VALID,11,VALID,0.717483,
2003-08-13, 02:18:00,VALID,917.459,VALID,0,VALID,100,VALID,0,VALID,19.9814,VALID,45,VALID,0.314509,
2003-08-13, 02:19:00,VALID,917.456,VALID,0,VALID,100,VALID,-0.0169808,VALID,19.9941,VALID,32,VALID,0.545608,
2003-08-13, 02:20:00,VALID,917.443,VALID,0,VALID,100,VALID,0,VALID,19.9708,VALID,20,VALID,0.478413,
2003-08-13, 02:21:00,VALID,917.448,VALID,0,VALID,100,VALID,-0.0339617,VALID,19.9683,VALID,19,VALID,0.320313,
2003-08-13, 02:22:00,VALID,917.446,VALID,0,VALID,100,VALID,-0.0169808,VALID,19.9549,VALID,17,VALID,0.392149,
2003-08-13, 02:23:00,VALID,917.442,VALID,0,VALID,100,VALID,0,VALID,19.9129,VALID,7,VALID,1.09697,
2003-08-13, 02:24:00,VALID,917.433,VALID,0,VALID,100,VALID,0,VALID,19.8582,VALID,10,VALID,1.05954,
2003-08-13, 02:25:00,VALID,917.44,VALID,0,VALID,100,VALID,-0.0169808,VALID,19.8485,VALID,19,VALID,0.869026,
2003-08-13, 02:26:00,VALID,917.473,VALID,0,VALID,100,VALID,0,VALID,19.8453,VALID,15,VALID,1.04818,
2003-08-13, 02:27:00,VALID,917.481,VALID,0,VALID,100,VALID,0,VALID,19.8321,VALID,28,VALID,1.02384,
2003-08-13, 02:28:00,VALID,917.487,VALID,0,VALID,100,VALID,0,VALID,19.8128,VALID,16,VALID,0.843967,
2003-08-13, 02:29:00,VALID,917.498,VALID,0,VALID,100,VALID,-0.0169808,VALID,19.82,VALID,16,VALID,0.428043,
2003-08-13, 02:30:00,VALID,917.498,VALID,0,VALID,100,VALID,0,VALID,19.8033,VALID,16,VALID,0.345536,
2003-08-13, 02:31:00,VALID,917.491,VALID,0,VALID,100,VALID,0,VALID,19.7929,VALID,16,VALID,0.453526,
2003-08-13, 02:32:00,VALID,917.471,VALID,0,VALID,100,VALID,0.0169808,VALID,19.819,VALID,17,VALID,0.553998,
2003-08-13, 02:33:00,VALID,917.458,VALID,0,VALID,100,VALID,-0.0169808,VALID,19.8292,VALID,17,VALID,0.363498,
2003-08-13, 02:34:00,VALID,917.45,VALID,0,VALID,100,VALID,0,VALID,19.823,VALID,17,VALID,0.0754523,
2003-08-13, 02:35:00,VALID,917.444,VALID,0,VALID,100,VALID,-0.0169808,VALID,19.8036,VALID,17,VALID,0.413672,
2003-08-13, 02:36:00,VALID,917.437,VALID,0,VALID,100,VALID,-0.0169808,VALID,19.8103,VALID,17,VALID,0.386914,
2003-08-13, 02:37:00,VALID,917.43,VALID,0,VALID,100,VALID,-0.0169808,VALID,19.8098,VALID,17,VALID,0.373047,
2003-08-13, 02:38:00,VALID,917.428,VALID,0,VALID,100,VALID,-0.0169808,VALID,19.8162,VALID,22,VALID,0.567491,
2003-08-13, 02:39:00,VALID,917.437,VALID,0,VALID,100,VALID,-0.0169808,VALID,19.816,VALID,23,VALID,0.742411,
2003-08-13, 02:40:00,VALID,917.435,VALID,0,VALID,100,VALID,-0.0169808,VALID,19.7998,VALID,24,VALID,0.757813,
2003-08-13, 02:41:00,VALID,917.404,VALID,0,VALID,100,VALID,0,VALID,19.8031,VALID,22,VALID,0.78824,
2003-08-13, 02:42:00,VALID,917.394,VALID,0,VALID,100,VALID,-0.0169808,VALID,19.8165,VALID,24,VALID,0.851768,
2003-08-13, 02:43:00,VALID,917.374,VALID,0,VALID,100,VALID,-0.0169808,VALID,19.777,VALID,27,VALID,1.20996,
2003-08-13, 02:44:00,VALID,917.355,VALID,0,VALID,100,VALID,0,VALID,19.781,VALID,25,VALID,1.40513,
2003-08-13, 02:45:00,VALID,917.349,VALID,0,VALID,100,VALID,-0.0169808,VALID,19.7678,VALID,26,VALID,1.33594,
2003-08-13, 02:46:00,VALID,917.336,VALID,0,VALID,100,VALID,0,VALID,19.7618,VALID,19,VALID,1.48504,
2003-08-13, 02:47:00,VALID,917.323,VALID,0,VALID,100,VALID,0,VALID,19.7745,VALID,24,VALID,1.25084,
2003-08-13, 02:48:00,VALID,917.318,VALID,0,VALID,100,VALID,0,VALID,19.7872,VALID,20,VALID,0.957442,
2003-08-13, 02:49:00,VALID,917.296,VALID,0,VALID,100,VALID,0,VALID,19.7974,VALID,26,VALID,1.10259,
2003-08-13, 02:50:00,VALID,917.279,VALID,0,VALID,100,VALID,-0.0339617,VALID,19.7512,VALID,24,VALID,1.09527,
2003-08-13, 02:51:00,VALID,917.251,VALID,0,VALID,100,VALID,0.0169808,VALID,19.7579,VALID,22,VALID,0.892923,
2003-08-13, 02:52:00,VALID,917.233,VALID,0,VALID,100,VALID,0,VALID,19.7839,VALID,357,VALID,0.576647,
2003-08-13, 02:53:00,VALID,917.219,VALID,0,VALID,100,VALID,0,VALID,19.7648,VALID,10,VALID,0.565947,
2003-08-13, 02:54:00,VALID,917.198,VALID,0,VALID,100,VALID,-0.0169808,VALID,19.7519,VALID,356,VALID,0.407335,
2003-08-13, 02:55:00,VALID,917.178,VALID,0,VALID,100,VALID,-0.0169808,VALID,19.7651,VALID,348,VALID,0.26242,
2003-08-13, 02:56:00,VALID,917.181,VALID,0,VALID,100,VALID,-0.0339617,VALID,19.7653,VALID,348,VALID,0.419271,
2003-08-13, 02:57:00,VALID,917.183,VALID,0,VALID,100,VALID,-0.0169808,VALID,19.7425,VALID,348,VALID,0.0544819,
2003-08-13, 02:58:00,VALID,917.188,VALID,0,VALID,100,VALID,0,VALID,19.739,VALID,348,VALID,0,
2003-08-13, 02:59:00,VALID,917.193,VALID,0,VALID,100,VALID,-0.0509425,VALID,19.7452,VALID,348,VALID,0,
2003-08-13, 03:00:00,VALID,917.209,VALID,0,VALID,100,VALID,-0.0169808,VALID,19.7753,VALID,348,VALID,0,
2003-08-13, 03:01:00,VALID,917.214,VALID,0,VALID,100,VALID,-0.0509425,VALID,19.7849,VALID,348,VALID,0,
2003-08-13, 03:02:00,VALID,917.218,VALID,0,VALID,100,VALID,0,VALID,19.768,VALID,348,VALID,0.164885,
2003-08-13, 03:03:00,VALID,917.221,VALID,0,VALID,100,VALID,-0.0169808,VALID,19.7556,VALID,348,VALID,0.485352,
2003-08-13, 03:04:00,VALID,917.224,VALID,0,VALID,100,VALID,-0.0339617,VALID,19.7263,VALID,332,VALID,0.542383,
2003-08-13, 03:05:00,VALID,917.21,VALID,0,VALID,100,VALID,-0.0169808,VALID,19.7069,VALID,340,VALID,0.567925,
2003-08-13, 03:06:00,VALID,917.212,VALID,0,VALID,100,VALID,-0.0509425,VALID,19.7295,VALID,354,VALID,0.38954,
2003-08-13, 03:07:00,VALID,917.213,VALID,0,VALID,100,VALID,0,VALID,19.7842,VALID,354,VALID,0.464955,
2003-08-13, 03:08:00,VALID,917.21,VALID,0,VALID,100,VALID,-0.0339617,VALID,19.7944,VALID,355,VALID,0.587416,
2003-08-13, 03:09:00,VALID,917.21,VALID,0,VALID,100,VALID,-0.0509425,VALID,19.7815,VALID,354,VALID,0.69449,
2003-08-13, 03:10:00,VALID,917.196,VALID,0,VALID,100,VALID,0,VALID,19.7425,VALID,359,VALID,0.649671,
2003-08-13, 03:11:00,VALID,917.179,VALID,0,VALID,100,VALID,0,VALID,19.7621,VALID,5,VALID,0.707812,
2003-08-13, 03:12:00,VALID,917.18,VALID,0,VALID,100,VALID,-0.0339617,VALID,19.7358,VALID,4,VALID,0.313839,
2003-08-13, 03:13:00,VALID,917.175,VALID,0,VALID,100,VALID,0,VALID,19.7323,VALID,4,VALID,0.1875,
2003-08-13, 03:14:00,VALID,917.154,VALID,0,VALID,100,VALID,0,VALID,19.7261,VALID,360,VALID,0.238393,
2003-08-13, 03:15:00,VALID,917.14,VALID,0,VALID,100,VALID,0,VALID,19.7363,VALID,337,VALID,0.721917,
2003-08-13, 03:16:00,VALID,917.137,VALID,0,VALID,100,VALID,0,VALID,19.7196,VALID,336,VALID,0.527344,
2003-08-13, 03:17:00,VALID,917.127,VALID,0,VALID,100,VALID,0,VALID,19.7191,VALID,324,VALID,0.253289,
2003-08-13, 03:18:00,VALID,917.111,VALID,0,VALID,100,VALID,-0.0169808,VALID,19.7295,VALID,290,VALID,0.28811,
2003-08-13, 03:19:00,VALID,917.09,VALID,0,VALID,100,VALID,0,VALID,19.7258,VALID,228,VALID,0.313189,
2003-08-13, 03:20:00,VALID,917.061,VALID,0,VALID,100,VALID,0.0339617,VALID,19.7288,VALID,228,VALID,0.120988,
2003-08-13, 03:21:00,VALID,917.024,VALID,0,VALID,100,VALID,0,VALID,19.7348,VALID,228,VALID,0.18704,
2003-08-13, 03:22:00,VALID,917.003,VALID,0,VALID,100,VALID,0,VALID,19.7581,VALID,228,VALID,0.078342,
2003-08-13, 03:23:00,VALID,916.959,VALID,0,VALID,100,VALID,-0.0169808,VALID,19.7613,VALID,228,VALID,0.103165,
2003-08-13, 03:24:00,VALID,916.948,VALID,0,VALID,100,VALID,0,VALID,19.7777,VALID,228,VALID,0.252604,
2003-08-13, 03:25:00,VALID,916.93,VALID,0,VALID,100,VALID,0,VALID,19.7745,VALID,228,VALID,0.406661,
2003-08-13, 03:26:00,VALID,916.932,VALID,0,VALID,100,VALID,0,VALID,19.7872,VALID,228,VALID,0.355357,
2003-08-13, 03:27:00,VALID,916.918,VALID,0,VALID,100,VALID,-0.0169808,VALID,19.7484,VALID,242,VALID,0.49359,
2003-08-13, 03:28:00,VALID,916.91,VALID,0,VALID,100,VALID,0.0169808,VALID,19.7392,VALID,242,VALID,0.26011,
2003-08-13, 03:29:00,VALID,916.906,VALID,0,VALID,100,VALID,0.0169808,VALID,19.7489,VALID,242,VALID,0.0677083,
2003-08-13, 03:30:00,VALID,916.894,VALID,0,VALID,100,VALID,0,VALID,19.7782,VALID,292,VALID,0.221834,
2003-08-13, 03:31:00,VALID,916.878,VALID,0,VALID,100,VALID,-0.0169808,VALID,19.778,VALID,22,VALID,0.636133,
2003-08-13, 03:32:00,VALID,916.866,VALID,0,VALID,100,VALID,-0.0339617,VALID,19.7748,VALID,12,VALID,0.968555,
2003-08-13, 03:33:00,VALID,916.861,VALID,0,VALID,100,VALID,0.0169808,VALID,19.7586,VALID,12,VALID,0.190972,
2003-08-13, 03:34:00,VALID,916.831,VALID,0,VALID,100,VALID,0,VALID,19.7616,VALID,335,VALID,0.205295,
2003-08-13, 03:35:00,VALID,916.815,VALID,0,VALID,100,VALID,0,VALID,19.7226,VALID,324,VALID,0.00602679,
2003-08-13, 03:36:00,VALID,916.811,VALID,0,VALID,100,VALID,0,VALID,19.7298,VALID,324,VALID,0,
2003-08-13, 03:37:00,VALID,916.805,VALID,0,VALID,100,VALID,0,VALID,19.7228,VALID,324,VALID,0,
2003-08-13, 03:38:00,VALID,916.804,VALID,0,VALID,100,VALID,0.0169808,VALID,19.7226,VALID,324,VALID,0,
2003-08-13, 03:39:00,VALID,916.808,VALID,0,VALID,100,VALID,0,VALID,19.7325,VALID,324,VALID,0,
2003-08-13, 03:40:00,VALID,916.826,VALID,0,VALID,100,VALID,0,VALID,19.7261,VALID,324,VALID,0.0113839,
2003-08-13, 03:41:00,VALID,916.817,VALID,0,VALID,100,VALID,-0.0169808,VALID,19.7097,VALID,324,VALID,0,
2003-08-13, 03:42:00,VALID,916.817,VALID,0,VALID,100,VALID,0,VALID,19.7233,VALID,324,VALID,0,
2003-08-13, 03:43:00,VALID,916.796,VALID,0,VALID,100,VALID,0,VALID,19.697,VALID,324,VALID,0.0513091,
2003-08-13, 03:44:00,VALID,916.793,VALID,0,VALID,100,VALID,0,VALID,19.6876,VALID,338,VALID,0.20477,
2003-08-13, 03:45:00,VALID,916.788,VALID,0,VALID,100,VALID,0.0169808,VALID,19.6843,VALID,339,VALID,0.207854,